TimeCST,TemperatureF,Dew PointF,Humidity,Sea Level PressureIn,VisibilityMPH,Wind Direction,Wind SpeedMPH,Gust SpeedMPH,PrecipitationIn,Events,Conditions,WindDirDegrees,DateUTC
12:58 AM,41.7,36.3,81,30.27,10.0,NNW,4.6,-,N/A,,Clear,340,2013-12-18 06:58:00
1:58 AM,40.3,35.6,83,30.27,10.0,North,6.9,-,N/A,,Clear,360,2013-12-18 07:58:00
2:58 AM,39.6,34.9,83,30.27,10.0,North,4.6,-,N/A,,Clear,350,2013-12-18 08:58:00
3:58 AM,40.6,35.1,80,30.28,10.0,North,6.9,-,N/A,,Clear,360,2013-12-18 09:58:00
4:58 AM,40.1,35.2,83,30.28,10.0,North,6.9,-,N/A,,Clear,10,2013-12-18 10:58:00
5:58 AM,40.5,35.1,81,30.30,10.0,North,8.1,-,N/A,,Clear,360,2013-12-18 11:58:00
6:58 AM,41.9,36.1,80,30.32,10.0,NNE,10.4,-,N/A,,Clear,20,2013-12-18 12:58:00
7:58 AM,48.7,37.2,64,30.34,10.0,NNE,8.1,-,N/A,,Clear,30,2013-12-18 13:58:00
8:58 AM,54.0,33.8,46,30.36,10.0,NE,12.7,-,N/A,,Clear,50,2013-12-18 14:58:00
9:58 AM,57.2,32.4,39,30.37,10.0,NE,11.5,-,0.00,,Clear,50,2013-12-18 15:58:00
10:58 AM,60.8,28.9,30,30.36,10.0,NE,9.2,-,0.00,,Clear,50,2013-12-18 16:58:00
11:58 AM,63.3,26.4,25,30.33,10.0,NE,8.1,-,N/A,,Clear,40,2013-12-18 17:58:00
12:58 PM,64.6,27.3,25,30.30,10.0,NE,10.4,-,N/A,,Clear,40,2013-12-18 18:58:00
1:58 PM,64.8,28.4,25,30.29,10.0,North,6.9,-,N/A,,Clear,10,2013-12-18 19:58:00
2:58 PM,64.8,29.8,27,30.28,10.0,NNE,5.8,-,N/A,,Clear,30,2013-12-18 20:58:00
3:58 PM,63.5,31.1,30,30.28,10.0,NNE,5.8,-,N/A,,Clear,20,2013-12-18 21:58:00
4:58 PM,58.1,32.9,39,30.27,10.0,NE,6.9,-,N/A,,Clear,40,2013-12-18 22:58:00
5:58 PM,50.0,38.8,66,30.28,10.0,NNE,3.5,-,N/A,,Clear,20,2013-12-18 23:58:00
6:58 PM,46.8,37.6,70,30.29,10.0,NE,4.6,-,N/A,,Clear,40,2013-12-19 00:58:00
7:58 PM,48.9,33.6,56,30.29,10.0,NE,3.5,-,N/A,,Clear,50,2013-12-19 01:58:00
8:58 PM,44.4,36.5,74,30.28,10.0,NE,1.2,-,N/A,,Clear,50,2013-12-19 02:58:00
9:58 PM,40.1,35.1,82,30.29,10.0,North,5.8,-,N/A,,Clear,10,2013-12-19 03:58:00
10:58 PM,39.4,34.5,83,30.30,10.0,NNE,2.3,-,N/A,,Clear,20,2013-12-19 04:58:00
11:58 PM,38.3,34.2,85,30.27,10.0,NE,3.5,-,N/A,,Clear,50,2013-12-19 05:58:00